When you browse on this site, cookies collect data to enhance your experience and personalize the content and advertising you see.
Visit our Privacy Policy to learn more. By continuing to use the site, you agree to this use of cookies and data.
  • In Hungary
  • List of Countries
  • For 7 days
  • Water Temperature
  • Satellite Maps
  • Weather Map
  • News
  • Weather Widgets
  • user-avatar
    Login

    Hourly Weather Nagoya

    Today, 17 November, Saturday

    Time Temperature Precipitation Wind Pressure Humidity
    00:00 +14°C° 0 mm 1 mps 752 mmHg 67%
    01:00 +14°C° 0 mm 1 mps 752 mmHg 67%
    02:00 +14°C° 0 mm 1 mps 752 mmHg 68%
    03:00 +13°C° 0 mm 1 mps 752 mmHg 69%
    04:00 +13°C° 0 mm 1 mps 752 mmHg 69%
    05:00 +13°C° 0 mm 1 mps 752 mmHg 70%
    06:00 +13°C° 0 mm 1 mps 752 mmHg 70%
    07:00 +14°C° 0 mm 2 mps 752 mmHg 65%
    08:00 +15°C° 0 mm 2 mps 752 mmHg 61%
    09:00 +16°C° 0 mm 1 mps 752 mmHg 56%
    10:00 +17°C° 0 mm 2 mps 751 mmHg 55%
    11:00 +18°C° 0 mm 2 mps 751 mmHg 54%
    12:00 +19°C° 0 mm 3 mps 751 mmHg 53%
    13:00 +19°C° 0 mm 3 mps 751 mmHg 52%
    14:00 +19°C° 0 mm 3 mps 751 mmHg 52%
    15:00 +19°C° 0 mm 3 mps 751 mmHg 51%
    16:00 +18°C° 0 mm 3 mps 751 mmHg 55%
    17:00 +17°C° 0 mm 3 mps 751 mmHg 58%
    18:00 +14°C° 0 mm 3 mps 752 mmHg 62%
    19:00 +14°C° 0 mm 3 mps 752 mmHg 63%
    20:00 +14°C° 0 mm 2 mps 752 mmHg 64%
    21:00 +14°C° 0 mm 2 mps 753 mmHg 66%
    22:00 +13°C° 0 mm 2 mps 753 mmHg 66%
    23:00 +13°C° 0 mm 2 mps 753 mmHg 67%

    Tomorrow, 18 November, Sunday

    Time Temperature Precipitation Wind Pressure Humidity
    00:00 +13°C° 0 mm 2 mps 753 mmHg 68%
    01:00 +12°C° 0 mm 2 mps 753 mmHg 67%
    02:00 +12°C° 0 mm 2 mps 753 mmHg 67%
    03:00 +12°C° 0 mm 2 mps 753 mmHg 67%
    04:00 +12°C° 0 mm 2 mps 753 mmHg 67%
    05:00 +12°C° 0 mm 2 mps 753 mmHg 67%
    06:00 +12°C° 0 mm 2 mps 753 mmHg 66%
    07:00 +13°C° 0 mm 2 mps 753 mmHg 62%
    08:00 +14°C° 0 mm 2 mps 753 mmHg 57%
    09:00 +15°C° 0 mm 2 mps 753 mmHg 52%
    10:00 +16°C° 0 mm 1 mps 753 mmHg 47%
    11:00 +19°C° 0 mm 1 mps 753 mmHg 41%
    12:00 +20°C° 0 mm 1 mps 752 mmHg 36%
    13:00 +20°C° 0 mm 1 mps 752 mmHg 36%
    14:00 +20°C° 0 mm 1 mps 752 mmHg 35%
    15:00 +20°C° 0 mm 1 mps 752 mmHg 35%
    16:00 +19°C° 0 mm 1 mps 752 mmHg 38%
    17:00 +18°C° 0 mm 1 mps 752 mmHg 41%
    18:00 +16°C° 0 mm 1 mps 752 mmHg 44%
    19:00 +16°C° 0 mm 1 mps 752 mmHg 47%
    20:00 +16°C° 0 mm 1 mps 752 mmHg 50%
    21:00 +16°C° 0 mm 1 mps 752 mmHg 53%
    22:00 +16°C° 0 mm 1 mps 752 mmHg 56%
    23:00 +15°C° 0 mm 1 mps 752 mmHg 59%

    Day after tomorrow, 19 November, Monday

    Time Temperature Precipitation Wind Pressure Humidity
    00:00 +15°C° 0 mm 1 mps 752 mmHg 62%
    01:00 +15°C° 0.2 mm 1 mps 752 mmHg 65%
    02:00 +15°C° 0.2 mm 1 mps 752 mmHg 67%
    03:00 +15°C° 0.2 mm 1 mps 751 mmHg 69%
    04:00 +15°C° 0.2 mm 1 mps 751 mmHg 70%
    05:00 +14°C° 0.2 mm 1 mps 752 mmHg 71%
    06:00 +14°C° 0.2 mm 1 mps 752 mmHg 72%
    07:00 +14°C° 0.2 mm 2 mps 752 mmHg 72%
    08:00 +15°C° 0.2 mm 2 mps 752 mmHg 73%
    09:00 +14°C° 0.2 mm 3 mps 752 mmHg 73%
    10:00 +14°C° 0.1 mm 3 mps 752 mmHg 67%
    11:00 +15°C° 0.1 mm 4 mps 752 mmHg 62%
    12:00 +15°C° 0.1 mm 4 mps 751 mmHg 56%
    13:00 +15°C° 0 mm 5 mps 751 mmHg 55%
    14:00 +15°C° 0 mm 5 mps 751 mmHg 54%
    15:00 +15°C° 0 mm 5 mps 751 mmHg 53%
    16:00 +14°C° 0 mm 5 mps 751 mmHg 55%
    17:00 +13°C° 0 mm 5 mps 751 mmHg 56%
    18:00 +12°C° 0 mm 5 mps 752 mmHg 58%
    19:00 +12°C° 0 mm 5 mps 752 mmHg 59%
    20:00 +11°C° 0 mm 4 mps 753 mmHg 60%
    21:00 +11°C° 0 mm 4 mps 753 mmHg 61%
    22:00 +11°C° 0 mm 4 mps 753 mmHg 62%
    23:00 +10°C° 0 mm 4 mps 753 mmHg 63%

    20 November, Tuesday

    Time Temperature Precipitation Wind Pressure Humidity
    00:00 +10°C° 0 mm 3 mps 753 mmHg 64%
    01:00 +10°C° 0 mm 3 mps 753 mmHg 64%
    02:00 +10°C° 0 mm 3 mps 753 mmHg 64%
    03:00 +10°C° 0 mm 3 mps 753 mmHg 64%
    04:00 +9°C° 0 mm 3 mps 754 mmHg 64%
    05:00 +9°C° 0 mm 3 mps 754 mmHg 63%
    06:00 +9°C° 0 mm 2 mps 754 mmHg 63%
    07:00 +10°C° 0 mm 2 mps 754 mmHg 60%
    08:00 +12°C° 0 mm 2 mps 755 mmHg 58%
    09:00 +13°C° 0 mm 2 mps 755 mmHg 55%
    10:00 +13°C° 0 mm 3 mps 755 mmHg 53%
    11:00 +14°C° 0 mm 3 mps 754 mmHg 50%
    12:00 +14°C° 0 mm 3 mps 754 mmHg 48%
    13:00 +14°C° 0 mm 4 mps 754 mmHg 48%
    14:00 +14°C° 0 mm 4 mps 754 mmHg 48%
    15:00 +14°C° 0 mm 4 mps 754 mmHg 48%
    16:00 +13°C° 0 mm 4 mps 755 mmHg 51%
    17:00 +12°C° 0 mm 4 mps 755 mmHg 54%
    18:00 +12°C° 0 mm 4 mps 756 mmHg 56%
    19:00 +11°C° 0 mm 3 mps 756 mmHg 58%
    20:00 +11°C° 0 mm 3 mps 756 mmHg 59%
    21:00 +10°C° 0 mm 3 mps 757 mmHg 60%
    22:00 +10°C° 0 mm 3 mps 756 mmHg 61%
    23:00 +10°C° 0 mm 2 mps 756 mmHg 62%

    21 November, Wednesday

    Time Temperature Precipitation Wind Pressure Humidity
    00:00 +9°C° 0 mm 2 mps 756 mmHg 63%
    01:00 +9°C° 0 mm 2 mps 756 mmHg 64%
    02:00 +9°C° 0 mm 2 mps 756 mmHg 65%
    03:00 +9°C° 0 mm 2 mps 756 mmHg 66%
    04:00 +9°C° 0 mm 2 mps 756 mmHg 67%
    05:00 +9°C° 0 mm 2 mps 756 mmHg 68%
    06:00 +8°C° 0 mm 2 mps 756 mmHg 68%
    07:00 +10°C° 0 mm 2 mps 756 mmHg 65%
    08:00 +12°C° 0 mm 2 mps 756 mmHg 61%
    09:00 +13°C° 0 mm 2 mps 757 mmHg 58%
    10:00 +14°C° 0 mm 2 mps 756 mmHg 53%
    11:00 +15°C° 0 mm 2 mps 755 mmHg 49%
    12:00 +17°C° 0 mm 2 mps 755 mmHg 45%
    13:00 +17°C° 0 mm 2 mps 754 mmHg 45%
    14:00 +17°C° 0 mm 2 mps 754 mmHg 44%
    15:00 +17°C° 0 mm 2 mps 753 mmHg 44%
    16:00 +16°C° 0 mm 2 mps 754 mmHg 47%
    17:00 +15°C° 0 mm 2 mps 754 mmHg 50%
    18:00 +14°C° 0 mm 2 mps 754 mmHg 53%
    19:00 +14°C° 0 mm 2 mps 754 mmHg 53%
    20:00 +13°C° 0 mm 2 mps 754 mmHg 54%
    21:00 +13°C° 0 mm 2 mps 754 mmHg 54%
    22:00 +13°C° 0 mm 2 mps 754 mmHg 54%
    23:00 +13°C° 0 mm 2 mps 753 mmHg 54%

    22 November, Thursday

    Time Temperature Precipitation Wind Pressure Humidity
    00:00 +13°C° 0 mm 2 mps 753 mmHg 54%
    01:00 +13°C° 0 mm 2 mps 753 mmHg 54%
    02:00 +12°C° 0 mm 2 mps 753 mmHg 54%
    03:00 +12°C° 0 mm 2 mps 752 mmHg 54%
    04:00 +12°C° 0 mm 2 mps 752 mmHg 56%
    05:00 +12°C° 0 mm 2 mps 752 mmHg 57%
    06:00 +12°C° 0 mm 2 mps 752 mmHg 58%
    07:00 +13°C° 0 mm 2 mps 752 mmHg 57%
    08:00 +13°C° 0 mm 2 mps 752 mmHg 55%
    09:00 +13°C° 0 mm 3 mps 752 mmHg 54%
    10:00 +14°C° 0 mm 3 mps 752 mmHg 51%
    11:00 +16°C° 0 mm 3 mps 751 mmHg 48%
    12:00 +17°C° 0 mm 3 mps 751 mmHg 46%
    13:00 +17°C° 0 mm 3 mps 751 mmHg 46%
    14:00 +16°C° 0 mm 3 mps 751 mmHg 47%
    15:00 +16°C° 0 mm 3 mps 751 mmHg 47%
    16:00 +14°C° 0 mm 3 mps 751 mmHg 52%
    17:00 +13°C° 0 mm 3 mps 752 mmHg 56%
    18:00 +12°C° 0 mm 3 mps 752 mmHg 61%
    19:00 +12°C° 0 mm 3 mps 753 mmHg 62%
    20:00 +12°C° 0 mm 3 mps 753 mmHg 63%
    21:00 +11°C° 0 mm 3 mps 753 mmHg 64%
    22:00 +11°C° 0 mm 3 mps 753 mmHg 64%
    23:00 +10°C° 0 mm 3 mps 753 mmHg 64%
    Show more